Tracking 29892 objects as of 21-Nov-2024
HD Live streaming from Space Station
objects crossing your sky now

H-3 R/B

Track H-3 R/B now!


NORAD ID: 61734
Int'l Code: 2024-198B
Perigee: 166.6 km
Apogee: 34,781.9 km
Inclination: 24.4 °
Period: 610.7 minutes
Semi major axis: 23845 km
RCS: Unknown
Launch date: November 4, 2024
Source: Japan (JPN)
Launch site: TANEGASHIMA SPACE CENTER (TNSTA)

Note: This is a ROCKET BODY
Your satellite tracking list
Your tracking list is empty




NASA's NSSDC Master Catalog

Two Line Element Set (TLE):
1 61734U 24198B   24325.27184035  .00083467 -10688-6  16537-2 0  9993
2 61734  24.4484 181.0945 7258308 189.6264 139.3434  2.35776435   386
Source of the keplerian elements: AFSPC